Regional Weather Roundup
Issued by NWS Sioux Falls, SD

Home | Current Version | Previous Version | Text Only | Print | Product List | Glossary On
Versions: 1 2 3 4 5 6 7 8 9 10 11 12 13 14 15 16 17 18 19 20 21 22 23 24 25 26 27 28 29 30 31 32 33 34 35 36 37 38 39 40 41 42 43 44 45 46 47 48 49 50
000
ASUS43 KFSD 222210
RWRFSD

WEATHER ROUNDUP FOR SE SOUTH DAKOTA/SW MINNESOTA/NW IOWA
NATIONAL WEATHER SERVICE SIOUX FALLS SD
500 PM CDT MON SEP 22 2014

NOTE: "FAIR" INDICATES FEW OR NO CLOUDS BELOW 12,000 FEET WITH NO
SIGNIFICANT WEATHER AND OR OBSTRUCTIONS TO VISIBILITY.


SDZ038>040-050-052>070-222300-
SOUTHEAST SOUTH DAKOTA

CITY           SKY/WX    TMP DP  RH WIND       PRES   REMARKS
CHAMBERLAIN    MOSUNNY   75  49  39 S16G24    30.05F
HURON          MOSUNNY   77  47  34 S13G23    30.08F
MADISON        FAIR      72  46  40 S9        30.15F
MITCHELL       MOSUNNY   76  49  38 S15G22    30.11F
SIOUX FALLS    PTSUNNY   72  47  40 S8        30.15F
WINNER         FAIR      76  46  34 S20G30    30.05F
YANKTON        MOSUNNY   73  50  43 S10       30.14F
$$

MNZ071-072-080-081-089-090-097-098-222300-
SOUTHWEST MINNESOTA

CITY           SKY/WX    TMP DP  RH WIND       PRES   REMARKS
FAIRMONT       SUNNY     73  45  35 SW9       30.19F
JACKSON        MOSUNNY   72  46  40 S7        30.20F
LUVERNE        SUNNY     72  43  35 S10       30.17F
MARSHALL       SUNNY     73  45  35 S10       30.14F
MONTEVIDEO     SUNNY     79  46  31 SW6       30.14F
PIPESTONE      MOSUNNY   72  45  37 SW10      30.16F
REDWOOD FALLS  SUNNY     74  46  36 S12       30.15F
TRACY          SUNNY     71  48  43 S10       30.16F
WINDOM         SUNNY     72  46  40 SW9       30.18F
WORTHINGTON    MOSUNNY   72  45  37 S8        30.19F
$$

IAZ001>003-012>014-020>022-031-032-NEZ013-014-SDZ071-222300-
NORTHWEST IOWA

CITY           SKY/WX    TMP DP  RH WIND       PRES   REMARKS
CHEROKEE       SUNNY     72  49  45 S10       30.19F
DENISON        SUNNY     72  50  46 S7        30.19F
ESTHERVILLE    MOSUNNY   71  47  42 S14       30.19F
LE MARS        SUNNY     72  50  46 S9G17     30.19S
ORANGE CITY    SUNNY     73  46  38 S9        30.19S
SHELDON        SUNNY     72  50  46 VRB7      30.17F
SIOUX CITY     MOSUNNY   74  49  41 S9        30.19F
SPENCER        MOSUNNY   72  48  42 SW7       30.19F
$$

ABBREVIATIONS USED IN REMARKS
   TC - TEMPERATURE IN CELSIUS
  WCI - WIND CHILL INDEX
   HX - HEAT INDEX
  VSB - VISIBILITY




USA.gov is the U.S. government's official web portal to all federal, state and local government web resources and services.